When you browse on this site, cookies collect data to enhance your experience and personalize the content and advertising you see.
Visit our Privacy Policy to learn more. By continuing to use the site, you agree to this use of cookies and data.
  • en France
  • Liste des pays
  • À 7 jours
  • Température de l'eau
  • Carte météo
  • Widgets météo
  • user-avatar
    Se connecter

    Météo par heure à Paris

    Ce jour, 24 Janvier, Vendredi

    Heure Température Précipitation Vent Pression Humidité
    00:00 +2°C° 0 mm 1 m/s 764 mmHg 72%
    01:00 +2°C° 0 mm 1 m/s 763 mmHg 72%
    02:00 +2°C° 0 mm 1 m/s 763 mmHg 72%
    03:00 +1°C° 0 mm 1 m/s 763 mmHg 72%
    04:00 +1°C° 0 mm 1 m/s 763 mmHg 72%
    05:00 +1°C° 0 mm 1 m/s 763 mmHg 72%
    06:00 +1°C° 0 mm 1 m/s 763 mmHg 72%
    07:00 +2°C° 0 mm 1 m/s 763 mmHg 70%
    08:00 +2°C° 0 mm 1 m/s 763 mmHg 67%
    09:00 +3°C° 0 mm 1 m/s 763 mmHg 64%
    10:00 +4°C° 0 mm 1 m/s 762 mmHg 60%
    11:00 +6°C° 0 mm 1 m/s 762 mmHg 55%
    12:00 +7°C° 0 mm 1 m/s 762 mmHg 51%
    13:00 +7°C° 0 mm 1 m/s 762 mmHg 54%
    14:00 +7°C° 0 mm 0 m/s 762 mmHg 56%
    15:00 +7°C° 0 mm 0 m/s 761 mmHg 59%
    16:00 +6°C° 0 mm 0 m/s 761 mmHg 63%
    17:00 +6°C° 0 mm 1 m/s 761 mmHg 66%
    18:00 +5°C° 0 mm 1 m/s 761 mmHg 69%
    19:00 +5°C° 0 mm 1 m/s 761 mmHg 72%
    20:00 +4°C° 0 mm 1 m/s 762 mmHg 75%
    21:00 +4°C° 0 mm 1 m/s 762 mmHg 77%
    22:00 +4°C° 0 mm 1 m/s 762 mmHg 81%
    23:00 +4°C° 0 mm 1 m/s 761 mmHg 84%

    Demain, 25 Janvier, Samedi

    Heure Température Précipitation Vent Pression Humidité
    00:00 +4°C° 0 mm 1 m/s 761 mmHg 87%
    01:00 +4°C° 0 mm 1 m/s 761 mmHg 89%
    02:00 +4°C° 0 mm 1 m/s 761 mmHg 91%
    03:00 +3°C° 0 mm 0 m/s 760 mmHg 93%
    04:00 +4°C° 0 mm 1 m/s 760 mmHg 93%
    05:00 +4°C° 0 mm 1 m/s 760 mmHg 93%
    06:00 +4°C° 0 mm 1 m/s 760 mmHg 94%
    07:00 +4°C° 0 mm 1 m/s 760 mmHg 94%
    08:00 +5°C° 0 mm 1 m/s 760 mmHg 93%
    09:00 +5°C° 0 mm 1 m/s 760 mmHg 93%
    10:00 +6°C° 0 mm 1 m/s 760 mmHg 89%
    11:00 +6°C° 0 mm 2 m/s 760 mmHg 84%
    12:00 +7°C° 0 mm 2 m/s 760 mmHg 80%
    13:00 +7°C° 0 mm 2 m/s 759 mmHg 80%
    14:00 +9°C° 0 mm 1 m/s 759 mmHg 80%
    15:00 +9°C° 0 mm 1 m/s 758 mmHg 80%
    16:00 +7°C° 0 mm 2 m/s 758 mmHg 84%
    17:00 +6°C° 0 mm 2 m/s 758 mmHg 87%
    18:00 +6°C° 0 mm 2 m/s 758 mmHg 91%
    19:00 +5°C° 0 mm 2 m/s 758 mmHg 92%
    20:00 +5°C° 0 mm 2 m/s 758 mmHg 92%
    21:00 +5°C° 0 mm 2 m/s 758 mmHg 93%
    22:00 +5°C° 0 mm 2 m/s 758 mmHg 93%
    23:00 +5°C° 0 mm 2 m/s 758 mmHg 93%

    Après-demain, 26 Janvier, Dimanche

    Heure Température Précipitation Vent Pression Humidité
    00:00 +5°C° 0 mm 2 m/s 757 mmHg 93%
    01:00 +4°C° 0 mm 2 m/s 757 mmHg 93%
    02:00 +4°C° 0 mm 2 m/s 757 mmHg 94%
    03:00 +4°C° 0 mm 2 m/s 757 mmHg 94%
    04:00 +4°C° 0 mm 2 m/s 757 mmHg 95%
    05:00 +4°C° 0 mm 2 m/s 757 mmHg 95%
    06:00 +4°C° 0 mm 2 m/s 757 mmHg 95%
    07:00 +4°C° 0 mm 2 m/s 757 mmHg 95%
    08:00 +5°C° 0 mm 2 m/s 757 mmHg 95%
    09:00 +4°C° 0 mm 3 m/s 758 mmHg 95%
    10:00 +7°C° 0 mm 3 m/s 758 mmHg 89%
    11:00 +7°C° 0 mm 4 m/s 757 mmHg 84%
    12:00 +8°C° 0 mm 4 m/s 757 mmHg 79%
    13:00 +8°C° 0 mm 4 m/s 757 mmHg 78%
    14:00 +10°C° 0 mm 4 m/s 756 mmHg 77%
    15:00 +10°C° 0 mm 4 m/s 756 mmHg 76%
    16:00 +8°C° 0 mm 4 m/s 756 mmHg 78%
    17:00 +8°C° 0 mm 4 m/s 756 mmHg 80%
    18:00 +8°C° 0 mm 5 m/s 756 mmHg 82%
    19:00 +8°C° 0 mm 5 m/s 756 mmHg 83%
    20:00 +8°C° 0 mm 5 m/s 755 mmHg 84%
    21:00 +8°C° 0 mm 5 m/s 755 mmHg 85%
    22:00 +8°C° 0.4 mm 6 m/s 755 mmHg 85%
    23:00 +8°C° 0.4 mm 6 m/s 755 mmHg 85%

    27 Janvier, Lundi

    Heure Température Précipitation Vent Pression Humidité
    00:00 +8°C° 0.4 mm 6 m/s 754 mmHg 85%
    01:00 +8°C° 1.1 mm 6 m/s 754 mmHg 86%
    02:00 +8°C° 1.1 mm 7 m/s 754 mmHg 87%
    03:00 +8°C° 1.1 mm 7 m/s 754 mmHg 87%
    04:00 +8°C° 0.4 mm 7 m/s 754 mmHg 87%
    05:00 +8°C° 0.4 mm 6 m/s 753 mmHg 86%
    06:00 +8°C° 0.4 mm 6 m/s 753 mmHg 86%
    07:00 +8°C° 0.2 mm 6 m/s 753 mmHg 85%
    08:00 +8°C° 0.2 mm 5 m/s 754 mmHg 85%
    09:00 +8°C° 0.2 mm 5 m/s 754 mmHg 85%
    10:00 +8°C° 0 mm 5 m/s 753 mmHg 81%
    11:00 +9°C° 0 mm 6 m/s 753 mmHg 78%
    12:00 +10°C° 0 mm 6 m/s 753 mmHg 74%
    13:00 +9°C° 0.3 mm 6 m/s 752 mmHg 77%
    14:00 +9°C° 0.3 mm 6 m/s 752 mmHg 79%
    15:00 +9°C° 0.3 mm 6 m/s 751 mmHg 81%
    16:00 +9°C° 0.6 mm 6 m/s 750 mmHg 83%
    17:00 +9°C° 0.6 mm 7 m/s 750 mmHg 85%
    18:00 +9°C° 0.6 mm 7 m/s 749 mmHg 86%
    19:00 +9°C° 0.5 mm 8 m/s 747 mmHg 84%
    20:00 +8°C° 0.5 mm 9 m/s 746 mmHg 81%
    21:00 +8°C° 0.5 mm 11 m/s 745 mmHg 79%
    22:00 +9°C° 0.8 mm 11 m/s 744 mmHg 80%
    23:00 +9°C° 0.8 mm 11 m/s 743 mmHg 81%

    28 Janvier, Mardi

    Heure Température Précipitation Vent Pression Humidité
    00:00 +9°C° 0.8 mm 11 m/s 743 mmHg 81%
    01:00 +9°C° 0.8 mm 10 m/s 743 mmHg 78%
    02:00 +8°C° 0.8 mm 9 m/s 743 mmHg 74%
    03:00 +7°C° 0.8 mm 8 m/s 744 mmHg 71%
    04:00 +6°C° 0 mm 8 m/s 745 mmHg 71%
    05:00 +6°C° 0 mm 7 m/s 746 mmHg 70%
    06:00 +5°C° 0 mm 7 m/s 747 mmHg 70%
    07:00 +4°C° 0 mm 7 m/s 748 mmHg 68%
    08:00 +4°C° 0 mm 7 m/s 749 mmHg 67%
    09:00 +4°C° 0 mm 6 m/s 750 mmHg 66%
    10:00 +5°C° 0 mm 7 m/s 751 mmHg 62%
    11:00 +5°C° 0 mm 7 m/s 751 mmHg 58%
    12:00 +6°C° 0 mm 8 m/s 751 mmHg 54%
    13:00 +6°C° 0 mm 7 m/s 751 mmHg 55%
    14:00 +6°C° 0 mm 7 m/s 751 mmHg 56%
    15:00 +6°C° 0 mm 7 m/s 751 mmHg 56%
    16:00 +5°C° 0 mm 7 m/s 751 mmHg 60%
    17:00 +5°C° 0 mm 6 m/s 751 mmHg 65%
    18:00 +4°C° 0 mm 6 m/s 752 mmHg 69%
    19:00 +4°C° 0 mm 6 m/s 751 mmHg 70%
    20:00 +4°C° 0 mm 7 m/s 751 mmHg 71%
    21:00 +4°C° 0 mm 7 m/s 751 mmHg 72%
    22:00 +5°C° 0 mm 8 m/s 750 mmHg 72%
    23:00 +5°C° 0 mm 8 m/s 750 mmHg 72%

    29 Janvier, Mercredi

    Heure Température Précipitation Vent Pression Humidité
    00:00 +5°C° 0 mm 8 m/s 749 mmHg 73%
    01:00 +5°C° 0 mm 9 m/s 749 mmHg 73%
    02:00 +5°C° 0 mm 9 m/s 748 mmHg 73%
    03:00 +6°C° 0 mm 9 m/s 748 mmHg 73%
    04:00 +5°C° 1.2 mm 8 m/s 748 mmHg 76%
    05:00 +4°C° 1.2 mm 6 m/s 748 mmHg 79%
    06:00 +3°C° 1.2 mm 5 m/s 748 mmHg 82%
    07:00 +3°C° 0.2 mm 5 m/s 748 mmHg 80%
    08:00 +3°C° 0.2 mm 5 m/s 749 mmHg 78%
    09:00 +4°C° 0.2 mm 6 m/s 750 mmHg 75%
    10:00 +4°C° 0.1 mm 6 m/s 750 mmHg 68%
    11:00 +5°C° 0.1 mm 6 m/s 751 mmHg 62%
    12:00 +6°C° 0.1 mm 7 m/s 751 mmHg 55%
    13:00 +6°C° 0 mm 7 m/s 751 mmHg 56%
    14:00 +6°C° 0 mm 7 m/s 751 mmHg 57%
    15:00 +7°C° 0 mm 6 m/s 751 mmHg 58%
    16:00 +5°C° 0.1 mm 7 m/s 752 mmHg 63%
    17:00 +5°C° 0.1 mm 7 m/s 752 mmHg 67%
    18:00 +4°C° 0.1 mm 7 m/s 752 mmHg 71%
    19:00 +4°C° 0 mm 7 m/s 753 mmHg 72%
    20:00 +4°C° 0 mm 7 m/s 753 mmHg 73%
    21:00 +4°C° 0 mm 7 m/s 753 mmHg 74%
    22:00 +3°C° 0 mm 6 m/s 754 mmHg 75%
    23:00 +3°C° 0 mm 6 m/s 754 mmHg 76%
    Voir plus